User: anonymous
Location: Unspecified
(0.0000°N, 0.0000°E)
Time: 10:13:33
(UTC+02:00)
Language:

Cosmos 1125 Rocket - Orbit

View from above orbital plane
View from above orbital plane
View from above satellite
View from above satellite

Ground track
Ground track

The orbit data is extracted from the following two-line orbital elements,

1 11511U 79078B   14107.97411648  .00000348  00000-0  12762-3 0  7672
2 11511 074.0364 279.9373 0014861 085.4279 084.6031 14.36387469812598
Epoch (UTC): 17 April 2014 23:22:43
Eccentricity: 0.0014861
inclination: 74.0364°
perigee height: 760 km
apogee height: 781 km
right ascension of ascending node: 279.9373°
argument of perigee: 85.4279°
revolutions per day: 14.36387469
mean anomaly at epoch: 84.6031°
orbit number at epoch: 81259

The dashed part of the orbit path shows where the satellite is in the earth's shadow,  

DLR